Weather History for Aberdeen, SD

Change the Weather History Date:

Wednesday, January 2, 2013

  Actual Average Record
Temperature  
Mean Temperature 21 °F 12 °F  
Max Temperature 33 °F 22 °F 50 °F (1963)
Min Temperature 8 °F 2 °F -30 °F (2010)
Degree Days  
Heating Degree Days 44 53  
Month to date heating degree days 97 106  
Since 1 July heating degree days 3521 3597  
Cooling Degree Days 0 0  
Month to date cooling degree days 0 0  
Year to date cooling degree days 0 0  
Moisture  
Dew Point 18 °F    
Average Humidity 78    
Maximum Humidity 88    
Minimum Humidity 67    
Precipitation  
Precipitation T in 0.02 in 0.60 in (1914)
Month to date precipitation T 0.04  
Year to date precipitation T 0.04  
Snow  
Snow T in - - ()
Month to date snowfall T  
Since 1 July snowfall 13.9  
Snow Depth 3.00 in    
Sea Level Pressure  
Sea Level Pressure 30.07 in    
Wind  
Wind Speed 13 mph (NW)    
Max Wind Speed 24 mph    
Max Gust Speed 35 mph    
Visibility 10 miles    
Events Snow    
T = Trace of Precipitation, MM = Missing Value Source: NWS Daily Summary

Daily Weather History Graph

Daily Weather History Graph

Search for Another Location

Airport:

Trip Planner

Search our weather history database for the weather conditions in past years. The results will help you decide how hot, cold, wet, or windy it might be!

Date:

Astronomy

Jan. 02, 2013 Rise Set
Actual Time 8:13 AM CST 5:02 PM CST
Civil Twilight 7:39 AM CST 5:36 PM CST
Nautical Twilight 7:02 AM CST 6:13 PM CST
Astronomical Twilight 6:26 AM CST 6:49 PM CST
Moon 10:54 PM CST (1/2) 10:40 AM CST (1/2)
Length of Visible Light 9h 56m
Length of Day
8h 48m
Waning Gibbous, 75% of the Moon is Illuminated
Jan 2
Waning Gibbous
Jan 4
Last Quarter
Jan 11
New
Jan 18
First Quarter
Jan 26
Full

Hourly Weather History & Observations

Time (CST) Temp. Windchill Dew Point Humidity Pressure Visibility Wind Dir Wind Speed Gust Speed Precip Events Conditions
12:14 AM 8.6 °F -3.7 °F 3.2 °F 79% 29.93 in 10.0 mi SSW 8.1 mph - N/A   Overcast
12:53 AM 10.9 °F -0.8 °F 7.0 °F 84% 29.99 in 10.0 mi South 8.1 mph - N/A   Overcast
1:53 AM 12.9 °F 3.8 °F 9.0 °F 84% 29.98 in 9.0 mi SSW 5.8 mph - 0.00 in Snow Light Snow
2:37 AM 15.8 °F 8.6 °F 12.2 °F 86% 29.91 in 10.0 mi South 4.6 mph - 0.00 in   Overcast
2:53 AM 16.0 °F 8.8 °F 12.0 °F 84% 29.99 in 10.0 mi SSW 4.6 mph - 0.00 in   Overcast
3:53 AM 26.1 °F 14.5 °F 21.9 °F 84% 29.97 in 10.0 mi WNW 13.8 mph - N/A   Overcast
4:37 AM 28.4 °F 18.0 °F 23.0 °F 80% 29.90 in 10.0 mi WNW 12.7 mph - N/A   Overcast
4:53 AM 28.9 °F 18.2 °F 23.0 °F 78% 29.97 in 10.0 mi WNW 13.8 mph - N/A   Overcast
5:53 AM 28.4 °F 18.5 °F 24.8 °F 86% 29.91 in 10.0 mi WNW 11.5 mph - N/A   Overcast
6:26 AM 28.4 °F 16.2 °F 23.0 °F 80% 29.91 in 10.0 mi WNW 17.3 mph - N/A   Overcast
6:53 AM 28.9 °F 17.7 °F 23.0 °F 78% 29.99 in 10.0 mi WNW 15.0 mph - N/A   Overcast
7:53 AM 28.0 °F 16.1 °F 21.9 °F 78% 30.00 in 10.0 mi WNW 16.1 mph - N/A   Overcast
8:53 AM 30.2 °F 19.8 °F 24.8 °F 80% 29.94 in 10.0 mi WNW 13.8 mph - N/A   Overcast
9:53 AM 30.0 °F 19.1 °F 24.1 °F 79% 30.02 in 10.0 mi WNW 15.0 mph - N/A   Overcast
10:53 AM 30.9 °F 20.2 °F 24.1 °F 76% 30.05 in 10.0 mi WNW 15.0 mph - N/A   Mostly Cloudy
11:38 AM 32.0 °F 23.0 °F 24.8 °F 75% 29.98 in 10.0 mi NW 11.5 mph - N/A   Overcast
11:53 AM 32.0 °F 22.5 °F 25.0 °F 75% 30.05 in 10.0 mi WNW 12.7 mph - N/A   Overcast
12:35 PM 30.2 °F 19.3 °F 24.8 °F 80% 29.98 in 10.0 mi NW 15.0 mph - N/A   Overcast
12:53 PM 32.0 °F 21.2 °F 24.1 °F 73% 30.04 in 10.0 mi NW 16.1 mph - N/A   Overcast
1:53 PM 32.0 °F 21.6 °F 25.0 °F 75% 30.05 in 10.0 mi WNW 15.0 mph - N/A   Overcast
2:53 PM 32.0 °F 23.0 °F 25.0 °F 75% 30.05 in 10.0 mi WNW 11.5 mph - N/A   Scattered Clouds
3:53 PM 32.0 °F 22.1 °F 24.1 °F 73% 30.07 in 10.0 mi NW 13.8 mph - N/A   Overcast
4:11 PM 32.0 °F 21.6 °F 24.8 °F 75% 30.03 in 10.0 mi NW 15.0 mph - N/A   Overcast
4:53 PM 30.0 °F 19.5 °F 23.0 °F 75% 30.09 in 10.0 mi NW 13.8 mph - N/A   Overcast
5:53 PM 27.0 °F 15.2 °F 21.0 °F 78% 30.13 in 10.0 mi NNE 15.0 mph - N/A   Overcast
6:00 PM 26.6 °F 15.2 °F 21.2 °F 80% 30.08 in 10.0 mi NNE 13.8 mph - N/A   Overcast
6:51 PM 24.8 °F 12.4 °F 19.4 °F 80% 30.11 in 9.0 mi North 15.0 mph - N/A   Overcast
6:53 PM 24.1 °F 11.0 °F 19.0 °F 81% 30.17 in 9.0 mi North 16.1 mph - N/A   Overcast
7:51 PM 21.2 °F 6.0 °F 15.8 °F 80% 30.16 in 10.0 mi North 19.6 mph - N/A   Overcast
7:53 PM 21.9 °F 7.3 °F 15.1 °F 75% 30.22 in 10.0 mi North 18.4 mph - N/A   Overcast
8:10 PM 19.4 °F 5.0 °F 14.0 °F 80% 30.18 in 10.0 mi North 16.1 mph - N/A   Overcast
8:53 PM 18.0 °F 2.2 °F 10.9 °F 74% 30.26 in 10.0 mi North 18.4 mph - N/A   Overcast
9:53 PM 15.8 °F 2.1 °F 6.8 °F 68% 30.22 in 10.0 mi North 12.7 mph - N/A   Overcast
10:53 PM 12.9 °F -0.9 °F 6.1 °F 74% 30.32 in 10.0 mi North 11.5 mph - N/A   Mostly Cloudy
11:30 PM 12.2 °F -1.0 °F 5.0 °F 73% 30.27 in 10.0 mi North 10.4 mph - N/A   Partly Cloudy
11:53 PM 10.0 °F -1.9 °F 3.9 °F 76% 30.34 in 10.0 mi NNW 8.1 mph - N/A   Partly Cloudy